Location: Canazei
(46.4667°N, 11.7667°E)
Time: 17:09:17
(UTC+00:00)

SL-08 R/B - Pass Details

Date: 21 April 2021
Orbit: 673 x 740 km, 98.5° (Epoch: 12 May)

Event Time Altitude Azimuth Distance (km) Brightness Sun altitude
Exits shadow 02:08:31 - 157° (SSE) 2,950 6.3 -19.5°
Reaches altitude 10° 02:10:19 10° 155° (SSE) 2,223 5.7 -19.3°
Maximum altitude 02:15:10 69° 73° (ENE) 773 3.6 -18.7°
Drops below altitude 10° 02:19:59 10° 351° (N) 2,201 6.3 -18.0°
Sets 02:22:14 0° 349° (NNW) 3,115 7.1 -17.7°
